Terminal Aerodrome Forecast
Issued by NWS

Home | Current Version | Previous Version | Text Only | Print | Product List | Glossary Off
Versions: 1 2 3 4 5 6 7 8 9 10 11 12 13 14 15 16 17 18 19 20

000
FTUS43 KBIS 250500
TAFMOT
TAF
KMOT 250534Z 2506/2606 31025G33KT 5SM -SN OVC015
      TEMPO 2506/2510 P6SM NSW SCT014 BKN025 OVC035
     FM251000 31024G30KT P6SM OVC014
      TEMPO 2513/2515 SCT015 BKN035
     FM251500 31023G28KT P6SM SCT025 BKN035
     FM252100 31018G24KT P6SM BKN045
     FM260100 30009KT P6SM SCT030 BKN045=

USA.gov is the U.S. government's official web portal to all federal, state and local government web resources and services.